Sherman-Denison, TX

5:17 PM CDT on September 26, 2017 (GMT -0500)
Sherman-Denison

Weather History for KGYI - December, 2013

Change the Weather History Date:

Sunday, December 15, 2013

  Actual Average (KDFW) Record (KDFW)
Temperature  
Mean Temperature 42 °F -  
Max Temperature 57 °F 55 °F 83 °F (1908)
Min Temperature 26 °F 35 °F 9 °F (1901)
Degree Days  
Heating Degree Days 24    
Moisture  
Dew Point 31 °F    
Average Humidity 70    
Maximum Humidity 94    
Minimum Humidity 43    
Precipitation  
Precipitation 0.00 in - - ()
Sea Level Pressure  
Sea Level Pressure 30.28 in    
Wind  
Wind Speed 4 mph (SSW)    
Max Wind Speed 14 mph    
Max Gust Speed -    
Visibility 8 miles    
Events      
Averages and records for this station are not official NWS values.
T = Trace of Precipitation, MM = Missing Value Source: NWS Daily Summary

Daily Weather History Graph

Daily Weather History Graph

Search for Another Location

Airport or City:

Trip Planner

Search our weather history database for the weather conditions in past years. The results will help you decide how hot, cold, wet, or windy it might be!

Date:

Astronomy

Dec. 15, 2013 Rise Set
Actual Time 7:24 AM CST 5:19 PM CST
Civil Twilight 6:56 AM CST 5:47 PM CST
Nautical Twilight 6:25 AM CST 6:18 PM CST
Astronomical Twilight 5:54 AM CST 6:49 PM CST
Moon 4:21 PM CST (12/15) 5:44 AM CST (12/15)
Length of Visible Light 10h 50m
Length of Day
9h 55m
Waxing Gibbous, 98% of the Moon is Illuminated
Dec 15
Waxing Gibbous
Dec 17
Full
Dec 25
Last Quarter
Jan 1
New
Jan 7
First Quarter

Hourly Weather History & Observations

Time (CST) Temp. Windchill Dew Point Humidity Pressure Visibility Wind Dir Wind Speed Gust Speed Precip Events Conditions
12:15 AM 29.3 °F - 25.9 °F 87% 30.32 in 7.0 mi Calm Calm - N/A   Clear
12:35 AM 29.7 °F - 25.7 °F 85% 30.31 in 7.0 mi Calm Calm - N/A   Clear
12:55 AM 29.1 °F - 25.3 °F 86% 30.30 in 7.0 mi Calm Calm - N/A   Clear
1:15 AM 28.8 °F 25.0 °F 25.3 °F 87% 30.30 in 7.0 mi WNW 3.5 mph - N/A   Clear
1:35 AM 26.8 °F 22.8 °F 23.9 °F 89% 30.31 in 7.0 mi SW 3.5 mph - N/A   Clear
1:55 AM 26.8 °F 22.8 °F 23.9 °F 89% 30.31 in 5.0 mi South 3.5 mph - N/A   Clear
2:15 AM 26.1 °F 20.5 °F 23.9 °F 92% 30.31 in 5.0 mi SSW 4.6 mph - N/A   Clear
2:35 AM 27.0 °F - 24.6 °F 91% 30.31 in 5.0 mi Calm Calm - N/A   Clear
2:55 AM 27.1 °F 23.2 °F 24.8 °F 91% 30.32 in 5.0 mi SSW 3.5 mph - N/A   Clear
3:15 AM 27.0 °F - 25.0 °F 92% 30.31 in 5.0 mi Calm Calm - N/A   Clear
3:35 AM 27.1 °F - 25.2 °F 92% 30.31 in 5.0 mi Calm Calm - N/A   Clear
3:55 AM 27.1 °F 23.2 °F 25.3 °F 93% 30.31 in 5.0 mi SW 3.5 mph - N/A   Clear
4:15 AM 26.6 °F - 25.0 °F 94% 30.31 in 5.0 mi Calm Calm - N/A   Clear
4:35 AM 27.0 °F - 24.6 °F 91% 30.30 in 5.0 mi Calm Calm - N/A   Clear
4:55 AM 28.0 °F - 25.3 °F 90% 30.30 in 7.0 mi Calm Calm - N/A   Clear
5:15 AM 28.4 °F - 25.0 °F 87% 30.30 in 7.0 mi Calm Calm - N/A   Clear
5:35 AM 28.0 °F - 25.3 °F 90% 30.30 in 7.0 mi Calm Calm - N/A   Clear
5:55 AM 28.4 °F - 24.8 °F 86% 30.30 in 7.0 mi Calm Calm - N/A   Clear
6:15 AM 27.9 °F - 24.3 °F 86% 30.30 in 7.0 mi Calm Calm - N/A   Clear
6:35 AM 26.6 °F 22.6 °F 23.7 °F 89% 30.30 in 7.0 mi WSW 3.5 mph - N/A   Clear
6:55 AM 26.6 °F - 23.7 °F 89% 30.31 in 7.0 mi Calm Calm - N/A   Clear
7:15 AM 27.1 °F - 23.9 °F 88% 30.32 in 7.0 mi Calm Calm - N/A   Clear
7:35 AM 26.6 °F - 24.3 °F 91% 30.32 in 4.0 mi Calm Calm - N/A   Clear
7:55 AM 27.1 °F 23.2 °F 24.1 °F 88% 30.32 in 5.0 mi SSW 3.5 mph - N/A   Clear
8:15 AM 28.4 °F - 26.1 °F 91% 30.33 in 4.0 mi Calm Calm - N/A   Clear
8:35 AM 30.7 °F - 28.0 °F 90% 30.33 in 5.0 mi Calm Calm - N/A   Clear
8:55 AM 33.1 °F - 29.7 °F 87% 30.33 in 5.0 mi Calm Calm - N/A   Clear
9:15 AM 35.6 °F 32.8 °F 30.9 °F 83% 30.33 in 7.0 mi SSW 3.5 mph - N/A   Clear
9:35 AM 37.9 °F 35.5 °F 31.6 °F 78% 30.34 in 10.0 mi SW 3.5 mph - N/A   Clear
9:55 AM 41.0 °F 39.0 °F 31.8 °F 70% 30.33 in 10.0 mi SW 3.5 mph - N/A   Clear
10:15 AM 43.5 °F 41.9 °F 32.4 °F 65% 30.34 in 10.0 mi WSW 3.5 mph - N/A   Clear
10:35 AM 45.0 °F 43.5 °F 33.3 °F 64% 30.33 in 10.0 mi WSW 3.5 mph - N/A   Clear
10:55 AM 47.3 °F - 33.4 °F 59% 30.33 in 10.0 mi SW 6.9 mph - N/A   Clear
11:15 AM 48.6 °F - 32.5 °F 54% 30.31 in 10.0 mi SW 6.9 mph - N/A   Clear
11:35 AM 49.6 °F - 33.4 °F 54% 30.31 in 10.0 mi SW 6.9 mph - N/A   Clear
11:55 AM 50.4 °F - 34.9 °F 55% 30.30 in 10.0 mi WSW 6.9 mph - N/A   Clear
12:15 PM 50.9 °F - 34.5 °F 54% 30.29 in 10.0 mi SW 5.8 mph - N/A   Clear
12:35 PM 52.7 °F - 35.8 °F 53% 30.28 in 10.0 mi SW 8.1 mph - N/A   Clear
12:55 PM 53.6 °F - 35.1 °F 50% 30.28 in 10.0 mi SW 3.5 mph - N/A   Clear
1:15 PM 54.5 °F - 35.4 °F 49% 30.27 in 10.0 mi SSW 3.5 mph - N/A   Clear
1:35 PM 54.9 °F - 35.1 °F 47% 30.27 in 10.0 mi SW 5.8 mph - N/A   Clear
1:55 PM 56.3 °F - 36.5 °F 47% 30.26 in 10.0 mi SSW 5.8 mph - N/A   Clear
2:15 PM 56.5 °F - 35.1 °F 45% 30.26 in 10.0 mi SW 4.6 mph - N/A   Clear
2:35 PM 57.2 °F - 35.1 °F 43% 30.25 in 10.0 mi SSW 8.1 mph - N/A   Clear
2:55 PM 57.2 °F - 35.4 °F 44% 30.25 in 10.0 mi SSW 6.9 mph - N/A   Clear
3:15 PM 57.6 °F - 35.2 °F 43% 30.24 in 10.0 mi South 9.2 mph - N/A   Clear
3:35 PM 57.6 °F - 35.6 °F 44% 30.22 in 10.0 mi South 10.4 mph - N/A   Clear
3:55 PM 56.7 °F - 35.6 °F 45% 30.22 in 10.0 mi SSW 10.4 mph - N/A   Clear
4:15 PM 56.5 °F - 35.1 °F 45% 30.22 in 10.0 mi South 6.9 mph - N/A   Clear
4:35 PM 55.4 °F - 34.2 °F 45% 30.22 in 10.0 mi South 9.2 mph - N/A   Clear
4:55 PM 52.9 °F - 35.2 °F 51% 30.23 in 10.0 mi South 6.9 mph - N/A   Clear
5:15 PM 48.7 °F - 35.4 °F 60% 30.22 in 10.0 mi South 9.2 mph - N/A   Clear
5:35 PM 46.8 °F - 34.5 °F 62% 30.22 in 10.0 mi South 8.1 mph - N/A   Clear
5:55 PM 45.3 °F 41.1 °F 33.8 °F 64% 30.23 in 10.0 mi South 8.1 mph - N/A   Clear
6:15 PM 45.0 °F 40.1 °F 33.8 °F 65% 30.23 in 10.0 mi South 9.2 mph - N/A   Clear
6:35 PM 45.7 °F 40.6 °F 33.6 °F 63% 30.22 in 10.0 mi South 10.4 mph - N/A   Clear
6:55 PM 44.1 °F 39.5 °F 32.9 °F 65% 30.23 in 10.0 mi South 8.1 mph - N/A   Clear
7:15 PM 43.7 °F 38.1 °F 32.9 °F 66% 30.23 in 10.0 mi South 10.4 mph - N/A   Clear
7:35 PM 44.6 °F 39.7 °F 32.7 °F 63% 30.23 in 10.0 mi South 9.2 mph - N/A   Clear
7:55 PM 44.8 °F 39.9 °F 32.4 °F 62% 30.23 in 10.0 mi South 9.2 mph - N/A   Clear
8:15 PM 43.2 °F 37.9 °F 32.2 °F 65% 30.23 in 10.0 mi South 9.2 mph - N/A   Clear
8:35 PM 42.6 °F 37.2 °F 32.0 °F 66% 30.23 in 10.0 mi SSE 9.2 mph - N/A   Clear
8:55 PM 44.1 °F 38.1 °F 32.0 °F 63% 30.23 in 10.0 mi SSE 11.5 mph - N/A   Clear
9:15 PM 43.7 °F 38.1 °F 32.0 °F 63% 30.23 in 10.0 mi SSE 10.4 mph - N/A   Clear
9:35 PM 44.1 °F 38.6 °F 32.4 °F 63% 30.23 in 10.0 mi South 10.4 mph - N/A   Clear
9:55 PM 42.3 °F 36.3 °F 33.1 °F 70% 30.24 in 10.0 mi South 10.4 mph - N/A   Clear
10:15 PM 41.5 °F 35.4 °F 33.1 °F 72% 30.24 in 10.0 mi South 10.4 mph - N/A   Clear
10:35 PM 44.8 °F 39.0 °F 33.3 °F 64% 30.24 in 10.0 mi South 11.5 mph - N/A   Clear
10:55 PM 46.4 °F 40.4 °F 33.8 °F 62% 30.23 in 10.0 mi South 13.8 mph - N/A   Clear
11:15 PM 45.1 °F 39.1 °F 34.2 °F 65% 30.22 in 10.0 mi South 12.7 mph - N/A   Clear
11:35 PM 45.1 °F 39.1 °F 34.2 °F 65% 30.22 in 10.0 mi SSW 12.7 mph - N/A   Clear
11:55 PM 45.3 °F 39.0 °F 34.2 °F 65% 30.22 in 10.0 mi South 13.8 mph - N/A   Clear